Location: Prague
(50.0830°N, 14.4670°E)
Time: 03:54:59
(UTC+02:00)

FO-29 - Pass Details

Date: 05 April 2023
Orbit: 799 x 1322 km, 98.5° (Epoch: 29 May)

Event Time Altitude Azimuth Distance (km) Brightness Sun altitude
Rises 05:45:05 0° 15° (NNE) 4,269 13.4 -8.0°
Reaches altitude 10° 05:47:56 10° 19° (NNE) 3,251 12.8 -7.5°
Maximum altitude 05:55:22 62° 100° (E) 1,306 10.5 -6.4°
Drops below altitude 10° 06:01:57 10° 180° (S) 2,894 11.8 -5.4°
Sets 06:04:22 0° 184° (S) 3,773 12.4 -5.0°
